[[[{"header":{"parameterUnit":"kt","parameterCategory":2,"dx":1,"dy":1,"la1":30.253999710083008,"la2":30.299108505249023,"lo1":-89.0895004272461,"lo2":-89.04439544677734,"nx":28,"ny":28,"refTime":"2022-10-19T21:00:00:Z","depth":0,"parameterNumber":1,"parameterNumberName":"U-component_of_WINDS"},"data":[-1.695,-1.7023,-1.7027,-1.7111,-1.713,-1.7188,-1.721,-1.7238,-1.7263,-1.7331,-1.7371,-1.7383,-1.7409,-1.7457,-1.7499,-1.7504,-1.752,-1.754,-1.7541,-1.7448,-1.7435,-1.7423,-1.7405,-1.7544,-1.7545,-1.7635,-1.7636,-1.7636,-1.6874,-1.6893,-1.6941,-1.699,-1.7029,-1.7012,-1.7049,-1.7083,-1.7135,-1.7167,-1.7208,-1.7269,-1.7317,-1.7337,-1.7384,-1.7416,-1.741,-1.7428,-1.7424,-1.7427,-1.7329,-1.731,-1.7431,-1.7431,-1.7431,-1.7431,-1.7431,-1.7431,-1.6735,-1.678,-1.6813,-1.6864,-1.6891,-1.6924,-1.6966,-1.6982,-1.7028,-1.708,-1.7078,-1.7138,-1.717,-1.7231,-1.7254,-1.7298,-1.7279,-1.7301,-1.7305,-1.7309,-1.7312,-1.7172,-1.7308,-1.7307,-1.7307,-1.7307,-1.7306,0,-1.6635,-1.6636,-1.6684,-1.6732,-1.677,-1.6808,-1.6845,-1.6871,-1.6878,-1.6916,-1.6971,-1.7004,-1.7069,-1.712,-1.7167,-1.7187,-1.7171,-1.7173,-1.7186,-1.7185,-1.7176,-1.7177,-1.7012,-1.7168,-1.7167,-1.7166,-1.7166,-1.7165,-1.6491,-1.6545,-1.6584,-1.6616,-1.6638,-1.6691,-1.6723,-1.6726,-1.676,-1.6805,-1.6844,-1.6897,-1.6939,-1.7028,-1.7045,-1.7093,-1.7086,-1.7144,-1.7093,-1.7089,-1.7081,-1.7077,-1.708,-1.7153,-1.7155,-1.7156,-1.7157,0,-1.6409,-1.642,-1.6505,-1.654,-1.655,-1.6605,-1.6634,-1.668,-1.6691,-1.6754,-1.6769,-1.6786,-1.6841,-1.685,-1.6916,-1.6918,-1.7003,-1.6997,-1.6989,-1.6987,-1.7037,-1.703,-1.7206,-1.7227,-1.7087,-1.7089,-1.709,0,-1.6289,-1.6361,-1.6372,-1.6421,-1.6498,-1.65,-1.6576,-1.6594,-1.6624,-1.6674,-1.6661,-1.6708,-1.6713,-1.6761,-1.6765,-1.6837,-1.6851,-1.6855,-1.6855,-1.6855,-1.6853,-1.687,-1.6862,-1.6858,-1.6857,-1.6857,-1.6856,0,-1.6156,-1.6249,-1.6329,-1.6352,-1.6398,-1.6435,-1.6456,-1.6491,-1.6524,-1.6568,-1.6588,-1.664,-1.6668,-1.6707,-1.6711,-1.6676,-1.6801,-1.6754,-1.6805,-1.6805,-1.6831,-1.6829,-1.6984,-1.6855,-1.6855,-1.6854,-1.6854,0,-1.6061,-1.6107,-1.6224,-1.626,-1.6285,-1.6339,-1.6389,-1.6438,-1.6476,-1.6483,-1.6518,-1.651,-1.6578,-1.6528,-1.662,-1.6571,-1.6599,-1.6611,-1.6615,-1.6619,-1.6563,-1.6644,-1.6795,-1.6809,-1.6624,-1.6622,-1.6621,0,-1.5903,-1.6026,-1.6028,-1.614,-1.6197,-1.6177,-1.6237,-1.6273,-1.6287,-1.6336,-1.6351,-1.6409,-1.6375,-1.6394,-1.6439,-1.6456,-1.6519,-1.6449,-1.6515,-1.6517,-1.65,-1.664,-1.6658,-1.6761,-1.6596,-1.6599,-1.6601,0,-1.5782,-1.584,-1.586,-1.5885,-1.5935,-1.5984,-1.6055,-1.6113,-1.6145,-1.6189,-1.6245,-1.633,-1.6305,-1.6339,-1.6339,-1.6385,-1.6476,-1.6353,-1.6354,-1.6371,-1.6587,-1.6603,-1.662,-1.6466,-1.6469,-1.6471,-1.6582,0,-1.5626,-1.5692,-1.5748,-1.5808,-1.5849,-1.5922,-1.5934,-1.5974,-1.5969,-1.5983,-1.6069,-1.6104,-1.6164,-1.6189,-1.6187,-1.6291,-1.6274,-1.6249,-1.62,-1.6294,-1.633,-1.6345,-1.6145,-1.6143,-1.6142,-1.6141,0,0,-1.547,-1.5564,-1.5567,-1.5637,-1.5671,-1.565,-1.5726,-1.5758,-1.5822,-1.5845,-1.5818,-1.5942,-1.5973,-1.6075,-1.6106,-1.6132,-1.615,-1.6119,-1.625,-1.6263,-1.6274,-1.6312,-1.6328,-1.614,-1.6139,-1.6139,-1.6138,0,-1.5415,-1.5449,-1.5526,-1.5558,-1.5606,-1.5618,-1.5636,-1.5681,-1.5694,-1.5781,-1.5762,-1.5816,-1.5919,-1.595,-1.598,-1.6107,-1.6089,-1.6126,-1.6187,-1.6239,-1.6252,-1.6264,-1.6305,-1.632,-1.6136,-1.6136,-1.6136,0,-1.5294,-1.5328,-1.5368,-1.5448,-1.548,-1.5542,-1.5494,-1.5564,-1.5609,-1.5585,-1.5671,-1.5693,-1.5739,-1.5838,-1.5883,-1.586,-1.6032,-1.5983,-1.599,-1.5995,-1.6045,-1.6062,-1.6076,-1.5883,-1.5882,-1.5881,0,0,-1.5245,-1.5308,-1.5346,-1.5437,-1.5459,-1.5478,-1.5514,-1.5514,-1.5557,-1.5574,-1.5602,-1.5643,-1.5701,-1.574,-1.5797,-1.5904,-1.5912,-1.5951,-1.5963,-1.5973,-1.5983,-1.6035,-1.6052,-1.5878,-1.5878,-1.5878,0,0,-1.5222,-1.5269,-1.5258,-1.5366,-1.5407,-1.5451,-1.5505,-1.5492,-1.5545,-1.5537,-1.5541,-1.5552,-1.5645,-1.5668,-1.5619,-1.5779,-1.5731,-1.5743,-1.576,-1.5776,-1.5787,-1.5779,-1.5574,0,0,0,0,0,-1.5173,-1.5263,-1.5252,-1.5272,-1.5376,-1.5457,-1.547,-1.5475,-1.5439,-1.5481,-1.5502,-1.5483,-1.5641,-1.5597,-1.5617,-1.5672,-1.5832,-1.584,-1.5848,-1.5896,-1.5911,-1.5925,0,0,0,0,0,0,-1.5181,-1.5206,-1.5249,-1.5297,-1.532,-1.5454,-1.5394,-1.5397,-1.5434,-1.5429,-1.5479,-1.5484,-1.549,-1.5588,-1.5605,-1.5657,-1.5568,-1.5835,-1.5842,-1.5848,-1.5901,-1.5914,-1.5925,0,0,0,0,0,-1.5187,-1.5207,-1.5372,-1.5296,-1.5316,-1.5343,-1.539,-1.5393,-1.5422,-1.5455,-1.546,-1.5422,-1.5491,-1.5507,-1.5598,-1.5649,-1.5556,-1.5562,-1.584,-1.5845,-1.585,-1.5907,0,0,0,0,0,0,-1.5192,-1.521,-1.5376,-1.5382,-1.5262,-1.5336,-1.5348,-1.5389,-1.5445,-1.5451,-1.5397,-1.5393,-1.5494,-1.5505,-1.5517,-1.5646,-1.5546,-1.5553,-1.5557,-1.5844,-1.5848,-1.5852,0,0,0,0,0,0,-1.5199,-1.5215,-1.5379,-1.5337,-1.5339,-1.5329,-1.534,-1.5419,-1.5446,-1.5384,-1.5382,-1.5395,-1.5476,-1.5504,-1.5513,-1.5638,-1.5538,-1.5545,-1.5549,-1.5552,-1.5847,-1.5851,0,0,0,0,0,0,-1.5206,-1.522,-1.5336,-1.5337,-1.5338,-1.5409,-1.5399,-1.5505,-1.541,-1.5382,-1.5402,-1.5398,-1.5476,-1.5485,-1.5511,-1.5632,-1.5636,-1.5538,-1.5543,-1.5546,-1.5548,0,0,0,0,0,0,0,-1.5212,-1.5117,-1.5339,-1.5337,-1.5337,-1.544,-1.5442,-1.5444,-1.541,-1.5406,-1.5403,-1.54,-1.5502,-1.5509,-1.5516,-1.5627,0,0,-1.5538,-1.5541,0,0,0,0,0,0,0,0,-1.5112,-1.5116,-1.5339,-1.5341,-1.5342,-1.5441,-1.5442,-1.5443,-1.5409,-1.5406,-1.5404,-1.5401,-1.5504,-1.5509,-1.5515,0,0,0,0,0,0,0,0,0,0,0,0,0,0,0,-1.5339,-1.534,0,-1.5441,-1.5442,-1.5443,-1.5409,-1.5406,-1.5404,-1.5402,-1.5505,-1.551,-1.5515,0,0,0,0,0,0,0,0,0,0,0,0,0,0,0,0,0,0,0,0,0,0,0,0,0,0,0,0,0,0,0,0,0,0,0,0,0,0,0,0,0,0,0,0,0,0,0,0,0,0,0,0,0,0,0,0,0,0,0,0,0,0,0,0,0,0,0,0,0]}],[{"header":{"parameterUnit":"kt","parameterCategory":2,"dx":1,"dy":1,"la1":30.253999710083008,"la2":30.299108505249023,"lo1":-89.0895004272461,"lo2":-89.04439544677734,"nx":28,"ny":28,"refTime":"2022-10-19T21:00:00:Z","depth":0,"parameterNumber":2,"parameterNumberName":"V-component_of_WINDS"},"data":[-6.1541,-6.1617,-6.162,-6.1706,-6.1723,-6.1781,-6.1803,-6.183,-6.1853,-6.1922,-6.1961,-6.1971,-6.1993,-6.2039,-6.2081,-6.2084,-6.2099,-6.2123,-6.2122,-6.2014,-6.1999,-6.1985,-6.1966,-6.2128,-6.2128,-6.2231,-6.2232,-6.2232,-6.1456,-6.1474,-6.1522,-6.157,-6.161,-6.1587,-6.1623,-6.1657,-6.171,-6.1739,-6.1779,-6.184,-6.1888,-6.1902,-6.1948,-6.1981,-6.1971,-6.1992,-6.1988,-6.1991,-6.1877,-6.1857,-6.1999,-6.1999,-6.1999,-6.1999,-6.1999,-6.1999,-6.1302,-6.1348,-6.1379,-6.1431,-6.1456,-6.1488,-6.1531,-6.1543,-6.1589,-6.1639,-6.1633,-6.1693,-6.1722,-6.1779,-6.1799,-6.1843,-6.182,-6.1843,-6.1848,-6.1853,-6.1856,-6.17,-6.1852,-6.1852,-6.1852,-6.1851,-6.1851,0,-6.1188,-6.1187,-6.1235,-6.1282,-6.132,-6.1357,-6.1392,-6.1419,-6.1418,-6.1456,-6.1511,-6.1543,-6.1605,-6.1656,-6.17,-6.1716,-6.1694,-6.1694,-6.1709,-6.1709,-6.1703,-6.1702,-6.1512,-6.1689,-6.1687,-6.1686,-6.1686,-6.1685,-6.1028,-6.1084,-6.1119,-6.1151,-6.1171,-6.1225,-6.1256,-6.1252,-6.1285,-6.1326,-6.1367,-6.1419,-6.146,-6.1547,-6.1558,-6.1605,-6.1594,-6.166,-6.1601,-6.1599,-6.1589,-6.1584,-6.1587,-6.167,-6.1672,-6.1674,-6.1675,0,-6.0936,-6.0942,-6.103,-6.1059,-6.1068,-6.1126,-6.115,-6.1197,-6.1203,-6.1267,-6.1282,-6.1292,-6.1346,-6.1347,-6.141,-6.1408,-6.1497,-6.1488,-6.1485,-6.1482,-6.1538,-6.1531,-6.1729,-6.1752,-6.159,-6.1591,-6.1593,0,-6.08,-6.0874,-6.0877,-6.0928,-6.1009,-6.1003,-6.1083,-6.1097,-6.1124,-6.1174,-6.1152,-6.12,-6.1195,-6.1242,-6.124,-6.1314,-6.1327,-6.1329,-6.1326,-6.1328,-6.1327,-6.1342,-6.1332,-6.1326,-6.1325,-6.1324,-6.1323,0,-6.0652,-6.0744,-6.0827,-6.0849,-6.0888,-6.0927,-6.0945,-6.0975,-6.1007,-6.1049,-6.1068,-6.1118,-6.1144,-6.1181,-6.1177,-6.1136,-6.127,-6.1213,-6.1271,-6.1271,-6.1297,-6.1295,-6.1474,-6.1322,-6.1322,-6.1321,-6.1321,0,-6.0541,-6.0586,-6.0709,-6.0739,-6.0763,-6.082,-6.0867,-6.0916,-6.0949,-6.0952,-6.0985,-6.0969,-6.1038,-6.098,-6.1073,-6.102,-6.1046,-6.1055,-6.1059,-6.1062,-6.0996,-6.109,-6.1265,-6.128,-6.1068,-6.1066,-6.1064,0,-6.0368,-6.0495,-6.049,-6.0607,-6.0665,-6.0634,-6.0696,-6.0728,-6.0737,-6.0786,-6.0795,-6.0852,-6.081,-6.0827,-6.0874,-6.0884,-6.0954,-6.0876,-6.094,-6.0942,-6.0927,-6.1088,-6.1111,-6.1227,-6.1037,-6.104,-6.1042,0,-6.0234,-6.0284,-6.0306,-6.0329,-6.0372,-6.0422,-6.0494,-6.0549,-6.0581,-6.0622,-6.0679,-6.0762,-6.0731,-6.0761,-6.0754,-6.0803,-6.0907,-6.0764,-6.0764,-6.0785,-6.1026,-6.1046,-6.1066,-6.0891,-6.0894,-6.0897,-6.1021,0,-6.0056,-6.0122,-6.0182,-6.0238,-6.0278,-6.0353,-6.0356,-6.0396,-6.0385,-6.0393,-6.048,-6.0509,-6.0565,-6.059,-6.0581,-6.0693,-6.0673,-6.0641,-6.0582,-6.069,-6.073,-6.0747,-6.0521,-6.0519,-6.0518,-6.0517,0,0,-5.9886,-5.9981,-5.9976,-6.0047,-6.0079,-6.0048,-6.0127,-6.0155,-6.0213,-6.0234,-6.0202,-6.0322,-6.0346,-6.0451,-6.0486,-6.051,-6.0529,-6.0492,-6.064,-6.0653,-6.0666,-6.0709,-6.0727,-6.0514,-6.0514,-6.0513,-6.0513,0,-5.9821,-5.9851,-5.9932,-5.9961,-6.0004,-6.0009,-6.0029,-6.0065,-6.0074,-6.0162,-6.0133,-6.0186,-6.0284,-6.0311,-6.0338,-6.048,-6.0454,-6.0498,-6.0571,-6.0625,-6.0641,-6.0655,-6.07,-6.0718,-6.0509,-6.0509,-6.051,0,-5.9686,-5.9714,-5.9755,-5.9831,-5.9859,-5.9921,-5.986,-5.9931,-5.9976,-5.9937,-6.0024,-6.0041,-6.008,-6.0182,-6.0228,-6.0199,-6.0384,-6.0329,-6.0338,-6.0342,-6.0394,-6.0413,-6.043,-6.0208,-6.0207,-6.0206,0,0,-5.9629,-5.9692,-5.9721,-5.9817,-5.9837,-5.9847,-5.9881,-5.9874,-5.9912,-5.9927,-5.9947,-5.9983,-6.0039,-6.0076,-6.0129,-6.0242,-6.0247,-6.0292,-6.0306,-6.0318,-6.0328,-6.0383,-6.0402,-6.0202,-6.0202,-6.0202,0,0,-5.9602,-5.9639,-5.9622,-5.9735,-5.9772,-5.9805,-5.9863,-5.9842,-5.9891,-5.9882,-5.9873,-5.9882,-5.9978,-5.9996,-5.9941,-6.0107,-6.0049,-6.0063,-6.0092,-6.011,-6.0124,-6.0116,-5.9881,0,0,0,0,0,-5.9537,-5.9634,-5.9618,-5.9638,-5.9735,-5.9814,-5.9826,-5.9821,-5.9779,-5.9824,-5.9838,-5.9809,-5.9963,-5.9915,-5.9934,-5.9993,-6.015,-6.0159,-6.0168,-6.0232,-6.0251,-6.0267,0,0,0,0,0,0,-5.9545,-5.9569,-5.9616,-5.9654,-5.9675,-5.9811,-5.9738,-5.9739,-5.9774,-5.9767,-5.9807,-5.981,-5.9807,-5.9905,-5.9922,-5.9979,-5.9876,-6.0153,-6.0161,-6.0168,-6.0238,-6.0254,-6.0267,0,0,0,0,0,-5.9551,-5.957,-5.9727,-5.9652,-5.9671,-5.9688,-5.9734,-5.9735,-5.9762,-5.9783,-5.9785,-5.9755,-5.9809,-5.9822,-5.9915,-5.9971,-5.9864,-5.987,-6.0158,-6.0165,-6.017,-6.0246,0,0,0,0,0,0,-5.9555,-5.957,-5.9731,-5.9736,-5.9616,-5.968,-5.969,-5.9731,-5.9775,-5.9778,-5.973,-5.9724,-5.9811,-5.9821,-5.9832,-5.9969,-5.9854,-5.9861,-5.9865,-6.0163,-6.0168,-6.0172,0,0,0,0,0,0,-5.956,-5.9575,-5.9733,-5.9688,-5.9688,-5.9673,-5.9682,-5.976,-5.9776,-5.9719,-5.9715,-5.9727,-5.9794,-5.9821,-5.9829,-5.9952,-5.9847,-5.9853,-5.9857,-5.986,-6.0167,-6.0171,0,0,0,0,0,0,-5.9566,-5.958,-5.9686,-5.9686,-5.9686,-5.9747,-5.9742,-5.9841,-5.9738,-5.9717,-5.9729,-5.9724,-5.9795,-5.9803,-5.9828,-5.9947,-5.9951,-5.9847,-5.9851,-5.9854,-5.9856,0,0,0,0,0,0,0,-5.9571,-5.9485,-5.9699,-5.9685,-5.9685,-5.9786,-5.9788,-5.9789,-5.9737,-5.9734,-5.973,-5.9726,-5.9812,-5.9818,-5.9825,-5.9943,0,0,-5.9846,-5.9849,0,0,0,0,0,0,0,0,-5.9479,-5.9483,-5.9699,-5.97,-5.9701,-5.9787,-5.9788,-5.9789,-5.9737,-5.9734,-5.9731,-5.9728,-5.9813,-5.9819,-5.9824,0,0,0,0,0,0,0,0,0,0,0,0,0,0,0,-5.9699,-5.97,0,-5.9787,-5.9788,-5.9789,-5.9736,-5.9734,-5.9731,-5.9729,-5.9815,-5.9819,-5.9824,0,0,0,0,0,0,0,0,0,0,0,0,0,0,0,0,0,0,0,0,0,0,0,0,0,0,0,0,0,0,0,0,0,0,0,0,0,0,0,0,0,0,0,0,0,0,0,0,0,0,0,0,0,0,0,0,0,0,0,0,0,0,0,0,0,0,0,0,0]}]]]